Hauptseite
METAR-TAF:

METAR-TAF

Flughäfen :

Militärflugplatz Alpnach

Alpnach, Schweiz

Breite: 46-56-19N, Länge: 8-17-03E, Höhe: 440 m

Beobachtung

Neuester Wetterbericht von vor 15 Minuten, um 11:20 UTC
Wind 2 kt aus unterschiedlichen Richtungen
Temperatur 23°C
Luftfeuchtigkeit 61%
Luftdruck 1022 hPa
Sichtweite 10 km oder mehr
Aufgelockert bewölkt in der Höhe von 7000 ft

METAR: LSMA 191120Z VRB02KT 9999 SCT070 23/15 Q1022 RMK BLU+

Zeit: 13:35 (11:35 UTC)


TAF: fehlend

Wetterbeobachtungen und Prognosen von mehr als 4000 Flughäfen (METAR und TAF Bericht).

Die verfügbaren Stationen werden durch gelbe und rote Markierungen auf der Karte dargestellt.

Führen Sie die Maus auf sie, um den Namen der Station zu sehen.

Darauf klicken, um die Beobachtung von Wetterbeobachtungen und Prognosen zu sehen.

Um die Karte zu ändern : klicken Sie auf den grünen Tasten mit einem schwarzen Kreuz Zum Vergrößern, auf den grünen Button mit einem Gedankenstrich zu verkleinern, oder auf die grünen Pfeile für benachbarte Karten.


METAR-TAF: